Regional Weather Roundup
Issued by NWS Goodland, KS

Home | Current Version | Previous Version | Graphics & Text | Print | Product List | Glossary On
Versions: 1 2 3 4 5 6 7 8 9 10 11 12 13 14 15 16 17 18 19 20 21 22 23 24 25 26 27 28 29 30 31 32 33 34 35 36 37 38 39 40 41 42 43 44 45 46 47 48 49 50
000
ASUS43 KGLD 231208
RWRGLD

GOODLAND FORECAST AREA HOURLY WEATHER ROUNDUP
NATIONAL WEATHER SERVICE GOODLAND KS
600 AM MDT SAT SEP 23 2017

...OFFICIAL OBSERVATIONS...

CITY           SKY/WX    TMP DP  RH WIND       PRES   REMARKS
GOODLAND KS    PTCLDY    67  61  81 S9        29.86R
HILL CITY KS   MOCLDY    73  66  78 S9G18     29.87R
IMPERIAL NEB   CLOUDY    52  48  86 N10       29.91R
MCCOOK NEB     MOCLDY    69  65  86 E8        29.86R
AKRON CO       CLOUDY    45  39  79 N16       29.96S
BURLINGTON CO  PTCLDY    54  48  80 NW13      29.92R
LIMON CO         N/A    N/A N/A N/A MISG      29.97R
$$

...UNOFFICIAL OBSERVATIONS...

CITY           SKY/WX    TMP DP  RH WIND       PRES   REMARKS
LENORA KS        N/A     71  32  23 MISG        N/A
NORTON KS      CLEAR     70  61  73 SE9       29.86R
SHARON SPRINGS   N/A     65  61  86 S12         N/A
KIT CARSON CO    N/A     53  45  74 MISG        N/A
YUMA CO        CLOUDY    46  41  81 N10       29.95R
$$




USA.gov is the U.S. government's official web portal to all federal, state and local government web resources and services.